Theta_e
339 338 339 339 340 347 347 348 349 349 350 351 352 352 351 353 356 358 358 361 362 363 363 364 364 363 361 361 362 362 361 360 360 359 359 359 357 358 361 360 360 361 359 361 359 358 361 365 366 364 366 369 369 370 373 373 372 370 375 374 372 375 372
334 335 337 338 342 346 347 348 348 348 350 351 353 353 352 354 357 357 359 362 363 363 363 364 365 364 363 362 361 362 361 361 361 362 362 362 362 363 363 364 362 363 363 362 364 364 364 361 368 364 366 368 367 371 369 373 373 372 370 373 372 372 372
335 336 336 337 342 345 348 348 350 349 350 351 353 353 351 356 358 358 360 361 362 364 364 363 364 364 364 363 361 361 361 361 362 362 360 359 362 357 362 365 364 363 361 363 367 364 363 361 366 367 366 365 364 370 370 371 373 371 372 373 371 370 372
335 335 337 340 345 347 348 347 347 348 350 351 351 351 353 357 358 360 361 361 361 363 363 363 362 362 363 363 362 361 361 361 361 359 358 360 360 361 362 364 365 361 360 359 360 362 358 362 362 367 368 366 367 367 368 368 368 370 370 371 371 370 371
336 336 336 340 341 341 342 346 348 350 349 350 353 356 356 358 357 358 360 361 363 362 363 362 361 363 363 363 360 360 360 360 361 360 359 360 363 364 363 360 362 359 360 358 359 363 365 364 362 364 365 368 366 367 368 369 368 370 370 370 370 368 368
334 336 341 340 339 341 341 342 346 349 349 349 351 354 356 355 355 356 358 361 363 364 364 365 364 364 362 362 361 360 361 361 362 362 361 362 364 363 362 362 360 360 358 360 359 359 366 362 362 362 362 363 361 361 363 365 365 366 369 369 368 366 363
334 334 334 338 340 343 343 343 345 347 350 350 350 356 355 354 355 356 358 361 364 364 363 364 363 362 362 363 362 363 361 360 361 360 361 360 363 363 363 364 363 360 359 362 359 358 359 362 362 364 363 361 362 360 361 365 364 364 367 368 368 369 368
334 334 336 342 341 340 340 347 348 347 349 349 351 352 354 355 356 356 358 360 363 364 364 364 363 363 364 364 362 361 361 359 360 361 361 359 360 362 363 363 363 363 362 360 362 360 356 360 361 364 364 362 362 362 362 366 366 363 365 366 367 366 364
333 336 337 341 342 341 343 344 344 346 348 348 349 348 349 351 354 356 357 360 363 363 364 364 364 365 366 364 363 362 360 360 360 360 360 358 359 359 360 362 362 364 362 357 358 361 358 359 358 363 364 363 363 363 363 365 365 363 364 365 366 365 363
329 333 338 338 340 340 343 343 345 347 347 346 345 349 352 355 357 356 357 360 363 363 364 364 365 364 364 363 361 360 361 360 360 359 358 358 359 359 361 362 361 363 362 357 357 358 361 360 359 363 365 363 364 363 362 365 363 362 363 365 366 365 365
328 334 335 335 337 341 344 345 346 348 348 349 349 350 355 358 358 358 359 360 361 363 365 365 365 364 363 362 360 359 360 358 359 359 358 357 358 359 360 362 362 361 360 358 356 357 359 361 361 363 365 362 363 363 361 364 363 362 361 363 364 365 364
327 336 334 335 339 339 338 342 346 350 350 350 348 349 358 360 358 358 359 360 362 363 364 365 365 364 363 362 360 359 360 359 359 358 358 358 358 359 359 360 361 360 361 359 356 358 357 360 360 361 363 362 362 364 363 364 364 364 362 360 361 364 364
329 337 337 337 343 342 343 344 348 352 353 351 350 353 357 358 358 358 361 361 361 363 364 365 365 365 363 362 358 359 360 358 358 359 359 359 359 359 360 359 359 360 359 360 357 355 356 357 360 362 363 363 362 362 364 364 364 365 365 363 361 362 364
340 332 337 339 339 342 343 344 349 351 354 356 353 354 355 357 358 360 362 360 361 362 363 364 365 365 364 362 360 360 361 361 360 359 361 361 361 362 361 359 359 362 363 363 359 355 356 356 358 362 363 363 363 362 365 365 364 366 367 365 363 362 363
326 327 332 333 347 349 344 354 353 354 355 356 354 354 355 356 357 360 363 361 362 361 362 365 365 364 363 363 361 361 363 363 363 362 363 362 363 362 361 360 361 363 364 363 360 356 355 358 358 359 361 364 364 363 364 365 365 365 366 365 364 362 361
325 328 328 331 339 342 350 355 355 358 359 358 355 356 353 356 359 360 360 361 360 362 363 365 364 364 363 362 363 365 365 365 364 363 364 363 363 363 362 362 362 361 363 363 362 360 357 357 360 359 360 363 365 365 364 365 365 360 351 355 363 362 358
331 330 332 335 341 343 346 350 355 362 369 363 360 359 357 359 359 358 358 359 360 362 363 365 364 364 364 364 366 367 366 366 364 364 363 364 364 364 364 363 363 362 363 364 363 361 361 358 360 359 359 360 363 363 364 365 364 349 339 342 349 361 361
331 332 333 334 337 340 342 342 350 352 359 359 359 363 359 362 360 358 356 360 360 360 361 362 364 364 365 367 367 369 367 366 366 364 364 365 365 364 365 365 364 363 363 363 362 363 362 359 359 360 361 360 362 362 363 364 355 337 336 339 340 351 362
331 334 336 336 338 341 340 343 349 355 356 351 352 350 355 360 357 359 359 361 362 362 361 362 362 364 366 367 367 369 368 367 366 365 364 365 366 366 365 365 365 363 362 362 363 364 363 361 359 359 361 361 361 361 363 363 345 334 334 336 336 338 355
339 339 340 341 341 341 347 348 350 351 355 361 360 353 354 358 356 361 361 363 366 364 363 364 363 365 365 367 368 369 370 369 367 366 365 366 367 367 365 364 364 364 363 362 365 364 364 362 361 360 361 362 363 362 362 363 341 331 331 333 333 336 344
337 338 340 341 343 344 347 350 353 354 355 353 357 359 352 354 355 361 363 364 364 364 365 366 365 365 366 367 368 370 370 370 368 367 366 367 367 367 366 364 365 365 364 361 363 364 364 362 361 361 362 361 363 364 361 361 333 328 328 329 330 333 340
334 337 338 340 342 345 349 348 350 349 351 357 356 355 357 349 351 352 359 363 365 363 365 367 367 366 366 367 369 369 371 370 369 369 367 367 367 367 366 365 365 365 364 360 359 362 366 366 363 362 362 361 360 358 361 360 328 327 327 327 328 331 350
335 337 339 341 343 344 348 350 351 351 356 356 358 358 358 358 346 352 355 359 360 363 363 366 367 366 366 366 369 369 370 370 369 369 368 367 366 366 366 365 365 366 366 361 359 359 362 363 362 364 361 360 360 359 360 364 332 324 324 325 325 332 356
332 335 337 339 342 345 348 350 352 354 354 354 355 356 361 361 361 357 358 359 361 362 361 362 365 367 366 366 368 369 369 370 370 370 369 368 366 366 366 367 365 364 366 363 360 359 361 363 364 364 362 360 360 358 361 364 339 319 321 323 322 338 359
328 331 335 337 339 341 344 348 351 352 353 354 352 357 360 361 362 359 358 360 360 361 359 360 364 366 366 366 368 369 370 370 370 371 369 370 369 368 369 367 365 364 366 363 362 362 365 365 364 362 363 361 361 358 360 360 346 316 321 319 319 336 360
325 328 332 336 338 341 344 348 350 352 353 353 357 362 362 360 357 357 358 360 359 357 357 358 362 366 368 368 368 369 370 369 370 370 369 370 371 371 371 370 366 366 366 365 362 360 361 362 364 363 362 362 362 363 363 360 361 331 318 318 318 325 360
326 329 331 334 336 340 341 345 348 350 352 356 360 360 360 358 354 354 360 360 358 357 358 361 363 368 369 369 367 368 369 369 370 369 369 370 370 371 371 369 367 366 366 363 362 361 359 359 361 361 363 362 363 362 363 363 363 342 315 316 317 320 337
325 327 330 333 336 338 341 344 347 350 352 356 359 358 358 358 357 358 363 360 358 360 362 364 366 368 370 370 369 368 367 367 370 371 368 370 371 371 370 371 370 368 367 364 364 363 361 359 358 358 360 362 363 363 362 362 354 352 318 317 315 317 324
321 323 326 330 334 338 341 343 346 349 353 356 356 358 358 354 355 359 364 360 361 363 365 367 367 370 371 371 369 370 370 370 371 370 368 369 372 371 370 371 369 369 369 367 365 364 363 362 360 358 358 360 361 363 365 367 361 337 332 316 314 315 318
322 324 326 330 334 337 340 342 347 350 355 358 358 360 362 358 357 362 364 363 366 366 368 369 369 371 371 369 369 370 370 370 370 371 369 371 371 371 370 370 370 369 369 368 365 363 363 363 361 359 356 356 358 361 366 370 372 336 328 325 313 314 315
320 322 324 327 331 336 339 342 347 352 357 358 362 364 366 366 363 369 366 368 369 368 368 369 369 370 370 369 369 369 370 370 370 371 371 372 372 371 370 369 369 368 369 368 366 364 362 363 362 360 357 356 357 359 364 368 371 353 333 323 317 315 314
321 323 324 326 329 335 338 340 346 350 353 360 363 365 367 369 366 369 369 373 370 370 369 370 370 369 369 369 368 369 368 368 367 370 371 372 371 371 370 368 367 366 368 367 365 364 363 362 361 361 360 359 359 360 363 367 366 362 346 328 322 319 316
320 322 324 326 328 335 336 338 343 346 351 355 359 361 366 358 364 376 377 373 371 369 371 371 370 367 368 369 368 369 367 366 364 366 367 369 369 369 369 368 366 365 365 364 362 362 362 363 361 361 360 360 360 361 363 364 365 366 353 341 335 332 330
318 321 325 327 330 336 334 336 340 344 348 353 358 362 366 368 369 376 373 369 366 365 371 371 369 368 368 368 367 366 367 366 363 363 362 364 365 363 364 365 366 364 364 362 362 362 361 361 360 360 361 360 359 360 361 362 363 365 361 348 344 341 341
319 322 325 325 329 335 332 333 336 342 344 348 354 359 360 365 366 368 371 372 370 368 367 369 366 367 368 367 366 364 364 366 365 365 363 364 366 367 376 370 366 365 364 366 367 365 362 361 362 363 363 362 361 360 359 360 361 362 347 355 333 343 347
320 323 324 325 332 334 332 331 334 338 340 342 346 349 354 357 360 364 367 369 373 372 368 368 368 367 367 366 365 364 363 364 365 365 362 363 360 343 327 308 300 310 367 364 325 316 320 341 363 365 362 360 363 365 362 363 363 341 329 322 320 322 326
320 322 323 326 328 330 330 330 332 336 338 340 340 342 343 345 347 352 358 362 364 367 370 371 367 365 366 365 364 361 363 364 364 365 365 365 360 352 346 343 331 302 297 307 311 305 300 301 307 321 339 364 362 334 310 327 323 314 312 315 316 316 316
323 324 325 326 328 328 329 329 329 332 335 337 338 339 341 342 342 344 346 355 361 359 363 368 366 365 364 365 364 361 361 365 364 364 365 365 362 358 354 352 345 337 307 298 302 301 298 298 300 302 312 329 340 349 347 322 311 310 308 312 313 314 314
Wind_Speed
23 22 19 17 17 14 14 12 11 11 11 12 14 16 20 18 17 16 17 18 20 19 18 17 18 16 18 15 15 13 13 12 11 11 10 9 8 8 8 9 9 8 8 8 8 7 6 5 7 8 8 8 6 5 4 4 4 3 2 2 2 2 2
20 20 19 18 18 16 15 13 14 13 10 11 11 17 18 19 16 17 17 19 21 21 20 19 18 17 17 16 14 14 14 14 12 10 10 8 8 7 9 9 9 8 8 8 7 7 6 7 5 8 8 8 7 6 6 5 5 4 4 3 3 3 2
23 20 19 18 17 15 15 16 15 14 14 12 14 16 21 19 19 19 18 19 21 19 19 18 19 18 17 16 15 16 15 14 13 13 13 12 12 13 10 9 9 8 9 8 7 8 7 8 6 7 7 8 8 7 6 6 5 5 4 4 4 4 3
21 20 20 20 18 16 17 18 19 18 16 19 18 19 22 19 18 16 17 20 21 21 21 20 19 19 17 16 16 16 16 15 14 14 15 13 13 11 10 9 8 9 8 8 8 9 9 7 9 6 8 7 7 8 7 7 7 6 5 4 4 4 4
18 18 19 20 20 17 19 18 19 17 20 16 14 19 21 16 19 17 17 20 22 24 24 23 19 18 15 16 14 14 16 17 15 13 13 12 11 11 11 13 11 10 9 10 8 7 6 9 9 7 8 7 8 7 7 7 7 6 5 5 4 5 4
18 17 17 17 16 18 18 18 19 20 19 20 21 18 16 21 21 22 22 21 21 21 19 19 19 17 17 19 16 16 15 14 14 13 13 12 12 12 13 12 12 12 12 11 9 8 8 9 9 9 10 9 10 9 9 8 7 7 6 5 5 5 5
17 17 16 18 19 18 19 18 19 19 16 16 16 11 18 20 21 22 20 21 23 22 23 23 21 20 18 16 16 16 18 18 15 16 13 14 13 13 12 11 11 12 11 9 10 9 9 10 9 10 10 11 10 11 9 8 8 7 6 6 6 5 5
15 16 16 19 19 18 18 17 19 18 14 11 12 17 21 19 20 22 22 21 22 22 21 22 21 19 18 17 16 18 18 19 16 16 14 16 14 14 13 12 11 11 10 11 10 10 11 10 10 10 11 11 10 9 10 9 9 9 7 7 7 7 6
19 19 17 18 19 20 18 17 18 18 20 20 22 22 21 22 22 22 22 21 20 22 23 22 21 19 16 16 16 17 18 17 17 16 17 18 16 17 16 14 13 11 12 12 12 10 10 10 11 10 11 10 9 9 9 10 10 9 8 8 8 8 8
18 18 22 24 22 20 17 18 15 14 16 16 15 15 19 21 19 20 20 21 21 23 23 22 20 19 18 17 18 19 17 17 16 20 19 19 16 18 17 16 15 12 13 13 12 12 10 11 11 10 10 11 10 10 8 10 10 10 9 9 9 9 8
12 15 18 23 20 20 17 17 18 16 16 16 15 17 19 19 19 20 20 20 21 21 21 20 19 19 19 20 21 20 18 20 19 19 20 19 17 19 18 17 16 13 14 14 13 13 11 10 11 10 11 12 10 11 11 10 11 11 11 10 9 10 9
10 10 16 17 21 21 21 17 16 16 17 16 18 20 17 17 18 20 19 21 19 19 20 20 19 19 19 19 20 18 20 19 19 21 21 20 18 19 19 17 16 16 14 15 14 12 13 12 12 11 11 11 11 11 11 10 10 10 10 11 10 10 9
5 10 13 15 18 19 16 14 15 18 19 19 22 19 18 18 18 18 15 18 19 18 18 18 18 17 19 20 20 17 18 20 20 18 19 18 17 16 17 17 17 17 16 15 14 14 15 14 13 11 12 12 11 11 11 11 11 10 10 10 9 10 10
9 9 9 10 17 18 18 18 17 17 17 18 20 18 16 18 18 16 15 17 17 18 19 17 17 16 17 17 17 16 18 18 18 18 17 16 14 14 15 16 15 14 14 13 15 16 15 16 15 12 12 12 12 11 11 11 11 10 10 10 9 9 10
6 4 5 8 6 7 11 15 14 16 18 18 20 18 18 17 17 15 14 15 15 17 19 16 15 16 17 16 16 15 16 15 14 15 15 16 14 14 14 14 13 13 13 12 14 14 15 15 15 13 13 12 12 11 11 12 11 10 11 11 11 9 10
8 10 5 1 4 3 6 4 14 17 19 18 18 17 18 15 15 16 16 16 18 15 16 15 16 15 17 17 15 13 14 15 13 14 14 15 15 14 13 12 12 12 13 14 13 11 11 11 13 15 14 13 13 12 11 11 10 12 17 15 11 10 10
13 9 15 10 11 14 14 6 5 4 5 10 11 13 13 13 14 16 18 16 18 15 15 16 15 15 15 15 13 13 14 14 13 13 14 15 14 14 13 13 12 11 11 13 13 12 10 10 12 15 14 14 14 14 12 11 11 17 17 18 18 13 10
8 8 10 10 8 12 10 9 6 5 3 4 2 7 10 9 13 15 16 16 16 18 17 16 15 16 14 14 13 13 15 14 14 14 14 14 15 15 13 12 13 12 11 12 14 11 10 11 11 11 13 13 14 15 13 12 13 17 18 18 18 15 11
9 8 12 10 10 10 9 7 10 11 9 4 9 12 14 11 13 13 13 13 14 13 15 14 16 14 15 15 15 14 14 14 14 14 14 14 15 14 14 13 12 13 13 13 13 12 11 11 11 11 11 13 13 14 13 12 14 18 19 19 18 18 13
12 11 10 10 10 10 11 11 10 10 9 7 8 9 9 10 11 11 12 10 10 12 12 12 13 14 15 14 15 14 14 14 15 15 14 13 14 14 14 14 13 13 12 11 11 12 12 12 11 10 10 10 12 12 12 13 12 19 20 20 20 19 15
11 9 10 10 10 11 10 10 10 9 7 8 8 5 6 10 12 9 11 11 13 13 12 11 12 13 14 15 15 14 14 15 15 15 14 13 13 13 14 14 12 12 12 11 11 11 12 12 11 10 10 10 9 11 12 13 16 19 21 20 21 20 14
12 12 11 10 11 10 9 11 11 12 11 9 9 10 5 11 13 14 12 12 12 13 12 10 11 14 14 14 15 15 15 16 15 14 14 14 14 14 14 14 14 13 11 11 12 11 10 9 10 11 11 11 10 10 12 10 18 20 21 21 20 20 9
12 12 12 12 13 13 12 11 10 11 11 10 10 11 9 11 16 14 13 14 14 13 14 12 13 14 16 16 16 16 16 16 16 15 15 14 15 15 15 14 14 12 10 11 12 12 12 12 13 9 11 12 10 10 9 7 14 20 22 21 22 15 8
13 13 13 14 14 15 14 13 12 12 12 13 13 14 13 12 11 12 10 13 13 14 15 15 14 15 16 16 17 17 17 16 16 15 15 14 15 15 14 14 13 13 11 12 13 14 14 13 12 11 11 13 12 14 9 8 11 19 20 21 21 18 12
14 14 14 14 15 16 16 15 15 15 14 14 15 14 14 15 13 12 13 12 14 15 16 17 15 15 17 17 17 15 15 16 16 15 16 15 15 14 14 15 14 13 12 13 12 12 10 11 11 11 10 14 14 15 13 11 10 18 19 19 20 17 12
15 15 14 15 15 15 16 16 15 15 15 15 14 13 13 15 12 12 12 14 16 17 17 18 17 16 15 15 15 15 15 15 15 15 16 15 15 14 13 12 13 15 14 13 13 11 11 12 12 13 12 12 13 12 13 14 9 16 21 21 21 22 14
14 14 15 16 16 16 15 15 14 15 16 14 13 14 12 12 11 11 11 14 15 17 18 17 13 12 12 14 15 16 17 16 15 17 17 15 15 15 13 14 14 15 14 15 14 12 12 12 12 13 11 11 12 12 14 14 11 14 22 21 22 23 19
16 17 16 16 17 16 15 15 15 16 17 16 17 17 13 10 10 10 9 13 16 17 16 12 11 11 12 14 15 16 17 17 15 15 16 15 14 14 13 13 14 14 14 14 12 13 13 11 10 11 11 11 11 11 12 13 18 10 18 21 22 23 24
17 17 17 18 18 18 16 16 16 17 18 17 18 16 11 12 11 10 9 14 16 14 11 11 11 12 12 13 14 14 15 15 16 14 16 14 14 14 14 13 13 13 12 13 12 12 12 12 10 10 9 10 9 9 10 9 12 18 17 20 21 23 23
16 16 17 17 17 18 18 17 16 17 18 18 15 12 8 9 10 10 10 13 12 11 11 11 11 12 13 13 14 13 15 14 16 16 15 14 14 14 14 14 13 12 12 12 11 11 11 11 11 10 11 10 9 9 9 9 7 13 20 20 23 22 24
17 16 16 17 18 18 17 17 18 17 19 15 8 9 8 7 8 8 11 10 10 11 11 11 12 12 13 13 14 13 14 13 13 15 14 13 14 14 14 14 13 11 11 11 11 11 11 11 11 12 11 10 10 9 8 9 7 7 14 22 22 24 24
17 16 16 16 16 17 16 16 16 16 17 15 11 13 10 7 8 9 9 9 10 12 11 11 11 13 13 13 13 14 15 16 16 15 15 13 13 13 13 13 13 12 11 12 11 10 11 11 11 11 10 10 10 9 9 8 9 7 9 11 18 19 23
16 16 16 16 16 16 15 15 13 14 16 14 12 11 14 8 6 3 6 8 11 11 11 11 12 13 12 13 13 13 14 16 15 15 16 14 14 14 12 12 12 12 11 11 11 11 11 10 10 10 10 10 9 9 8 8 9 9 7 8 8 7 11
16 17 17 15 15 13 14 14 13 13 13 13 12 12 10 13 5 5 5 8 10 11 9 9 12 13 14 15 13 12 14 14 16 17 16 15 16 16 16 14 13 14 13 13 14 13 12 11 11 11 11 11 10 9 9 10 10 10 8 9 8 8 7
14 15 15 16 15 12 13 13 14 12 13 12 12 11 11 11 13 8 4 5 7 8 9 9 12 13 14 14 13 13 13 13 13 14 15 12 14 10 6 9 14 13 12 12 13 12 13 12 11 11 11 10 9 10 11 11 10 11 10 13 16 14 10
14 14 15 15 11 11 13 15 14 12 12 11 11 12 11 13 11 11 10 5 4 5 8 10 11 13 14 13 13 14 13 13 14 15 14 15 13 8 7 11 13 8 5 10 7 7 2 7 10 11 11 11 10 9 11 11 10 8 11 19 20 19 20
13 13 14 15 13 12 13 15 15 12 12 11 12 11 12 12 13 13 12 10 9 8 6 10 11 12 13 13 13 14 13 13 13 14 12 13 10 9 9 6 10 16 16 12 8 8 10 9 8 4 6 9 5 2 8 2 12 13 15 19 20 20 18
11 11 13 13 10 12 13 14 15 14 13 11 11 11 10 10 11 11 12 10 9 9 9 8 11 12 12 13 13 14 13 13 13 14 13 11 10 10 11 9 9 7 12 13 11 11 11 11 11 10 10 9 12 9 3 3 2 13 16 19 19 20 20
Wind_Direction
184 184 183 185 186 174 175 168 172 176 182 194 202 204 199 192 190 182 182 181 184 183 183 181 179 179 180 180 178 178 178 178 179 182 185 187 188 186 180 183 190 191 184 183 189 202 191 206 168 171 168 176 187 185 187 181 190 200 185 180 206 303 175
184 185 186 186 179 175 173 169 177 185 186 194 204 204 206 196 188 185 182 181 184 184 183 182 179 182 181 180 179 177 178 179 179 179 181 184 185 190 185 184 191 190 189 185 182 191 186 199 182 170 168 169 183 184 185 180 190 196 188 186 193 199 210
183 188 186 182 179 177 173 172 177 182 187 189 195 206 207 195 190 186 180 181 182 185 185 185 183 181 181 178 177 179 179 179 177 179 182 185 186 193 191 188 190 190 194 187 179 181 189 184 195 172 172 168 184 182 182 185 188 194 198 180 194 192 204
178 181 181 178 180 179 176 179 184 186 182 189 197 208 209 194 190 184 181 181 182 183 185 187 183 182 180 178 179 179 180 180 182 182 186 187 187 190 191 191 189 193 192 196 189 183 190 182 185 179 175 169 178 178 187 190 190 192 201 192 192 198 193
169 185 174 173 187 180 178 181 184 181 187 190 198 206 208 195 188 186 184 183 185 185 187 185 183 182 180 179 181 181 182 182 181 182 184 186 184 187 193 196 191 197 190 193 199 183 181 175 179 181 177 176 177 176 183 189 190 186 195 196 200 204 196
176 177 172 180 183 180 181 183 183 183 182 187 195 202 211 203 193 193 187 184 187 186 185 183 184 181 182 183 181 179 179 182 181 180 184 183 181 187 193 196 191 196 191 188 195 190 181 176 177 184 181 185 185 184 186 188 196 189 191 196 199 209 208
177 185 185 172 176 178 180 181 180 182 185 183 187 196 209 204 204 193 189 188 187 186 186 186 186 184 183 182 183 176 179 180 179 181 182 185 186 188 192 195 193 192 196 183 192 188 186 177 180 181 187 189 188 189 185 185 191 190 187 192 194 212 213
180 186 181 167 174 179 185 180 176 177 174 179 175 188 206 210 202 194 194 190 187 188 189 188 187 186 181 184 182 180 180 182 179 181 181 185 187 191 191 194 195 186 195 186 188 186 188 183 183 184 185 190 188 192 181 181 181 190 188 188 198 203 209
183 176 170 164 168 180 184 182 182 175 181 188 186 189 197 201 204 198 194 190 188 189 191 189 188 185 181 183 183 180 178 178 179 180 183 186 188 193 193 193 195 188 193 192 188 186 187 187 190 186 182 191 187 191 183 177 182 188 189 192 196 200 209
193 171 174 177 181 177 179 183 180 174 178 187 193 193 192 198 196 195 194 193 191 193 190 189 188 185 182 183 185 181 177 179 180 182 184 188 189 192 193 190 193 190 191 194 189 188 186 184 192 187 181 189 186 186 190 178 182 186 192 192 193 200 210
214 175 170 182 169 165 176 178 177 175 181 187 193 192 191 192 195 194 194 193 193 192 190 189 188 186 183 184 183 181 179 182 182 184 186 188 190 192 193 190 189 190 192 193 193 188 187 184 189 190 185 189 188 183 190 187 183 186 194 193 193 198 204
237 179 174 175 161 167 175 178 178 177 181 187 195 196 185 187 193 196 194 194 192 190 192 192 189 187 183 185 185 181 181 182 183 186 187 189 191 191 193 191 189 188 190 193 194 186 189 187 188 190 188 189 190 186 185 187 186 187 195 198 195 194 203
231 175 171 159 149 161 169 180 182 173 180 187 194 191 185 186 192 195 191 192 192 190 189 190 190 185 184 187 188 182 181 183 185 185 187 188 191 190 191 194 192 189 190 192 195 191 190 192 191 190 187 189 191 192 185 187 189 188 194 202 200 194 198
357 129 145 150 160 165 175 182 182 178 182 186 188 188 186 187 190 192 188 191 193 189 188 190 190 184 183 187 188 185 183 185 184 185 184 186 189 191 191 195 193 188 187 190 194 195 192 192 192 190 187 189 194 194 189 188 190 191 194 200 203 194 195
43 70 106 149 149 152 169 165 170 180 186 184 184 186 186 186 187 190 187 190 193 192 190 184 186 186 184 187 191 186 183 182 184 184 181 184 187 192 193 195 193 186 184 188 196 197 195 191 189 191 190 189 193 195 192 192 194 193 193 196 203 202 198
51 35 153 274 20 72 17 174 178 180 178 181 181 180 187 181 182 188 188 190 192 194 189 178 184 185 185 188 189 183 180 183 185 185 182 184 185 191 193 192 192 190 185 185 195 199 198 193 182 190 190 188 190 195 196 195 197 195 192 192 197 203 206
28 37 46 54 43 36 12 23 22 37 146 171 172 180 185 178 184 188 194 190 193 194 191 182 178 183 183 184 186 181 180 183 187 186 185 183 184 188 191 189 189 193 187 182 189 198 198 198 186 188 192 193 192 195 200 199 201 191 189 193 196 198 205
23 19 40 24 38 36 13 12 122 168 234 48 288 202 187 185 182 189 197 190 194 194 194 189 180 180 179 178 182 181 180 184 186 189 188 183 186 187 191 188 188 191 189 183 183 192 196 199 197 190 187 192 194 197 200 203 195 182 188 192 197 199 202
6 19 13 352 10 18 13 12 357 0 345 194 201 212 224 202 195 192 195 193 190 190 194 191 183 178 178 177 179 182 180 182 187 190 190 189 186 185 189 191 190 189 189 187 181 184 195 198 199 198 191 186 192 198 200 206 186 179 185 192 196 202 204
28 12 5 4 350 351 7 350 344 339 330 329 308 262 234 228 214 190 193 192 180 190 196 191 183 176 178 176 178 180 179 181 187 190 192 189 186 184 188 192 194 191 189 186 178 182 192 198 200 201 201 192 187 194 200 208 173 181 185 191 195 200 204
14 13 355 357 352 346 343 328 323 317 320 324 331 321 260 249 220 198 185 188 185 188 194 192 181 173 176 179 177 178 179 182 187 190 191 190 187 185 188 192 194 192 188 188 184 181 187 195 199 202 205 205 192 190 197 208 173 181 185 191 195 200 200
356 355 354 345 336 328 334 332 328 316 308 312 297 283 256 256 246 220 194 189 188 184 191 191 182 173 176 179 179 181 180 181 185 189 191 189 187 188 188 190 193 192 188 191 193 188 183 190 201 200 203 206 209 204 200 199 169 180 185 189 195 194 191
350 349 346 338 332 326 321 316 304 302 305 298 293 285 251 227 230 226 201 190 190 184 189 190 185 179 179 182 181 182 181 182 184 186 190 189 189 190 188 188 190 192 187 191 193 191 188 191 200 198 202 205 208 218 213 192 179 179 186 187 191 186 188
347 346 343 338 330 323 318 311 316 316 317 308 303 297 292 275 254 217 201 188 189 183 188 194 191 185 181 184 183 183 182 182 184 185 187 189 192 190 189 187 187 191 187 191 192 196 193 192 198 199 202 203 205 209 217 206 179 185 187 188 185 184 190
344 340 338 332 326 319 315 318 319 311 300 290 278 273 272 272 265 245 196 186 186 185 189 196 195 188 185 185 183 181 182 184 186 187 187 188 189 188 187 189 187 187 186 192 196 197 190 190 195 200 201 204 206 204 205 218 181 188 184 190 185 188 197
341 336 332 328 319 317 315 311 303 293 288 280 271 258 251 260 254 250 210 185 185 191 196 199 199 192 184 178 178 181 185 188 188 187 189 187 185 188 189 185 184 186 185 191 196 197 196 191 193 199 203 202 204 201 200 211 187 185 188 186 187 189 192
339 335 330 326 321 317 305 300 295 295 295 294 289 284 265 249 246 243 214 186 188 194 199 199 195 184 178 179 183 185 186 189 188 188 190 189 187 189 189 189 188 186 185 191 194 197 200 198 194 200 200 202 203 207 203 209 202 180 189 189 187 193 193
340 338 332 326 317 310 307 305 301 298 293 287 281 267 255 249 237 244 209 187 191 196 195 187 183 183 177 176 185 188 190 192 188 188 191 189 186 188 191 190 189 186 182 190 190 192 196 201 197 198 198 201 202 207 210 200 203 165 191 191 191 192 198
340 335 331 325 321 318 314 310 305 297 292 284 276 269 241 236 236 234 208 194 193 190 179 176 179 179 175 177 184 188 188 187 185 185 193 190 186 187 187 185 189 186 181 188 190 190 193 197 202 201 199 200 201 202 206 202 196 170 181 192 194 195 200
335 331 329 323 319 319 318 310 302 298 295 288 272 270 258 225 227 225 204 198 184 176 170 170 176 174 176 179 186 187 189 189 188 188 196 189 184 185 185 186 188 185 183 186 188 187 191 192 197 203 206 206 202 200 198 200 181 174 177 184 193 198 200
330 328 326 324 319 318 317 312 308 307 306 286 282 289 270 231 234 222 202 188 170 166 166 170 172 175 179 180 185 188 190 190 189 188 194 188 181 183 185 186 185 185 184 185 188 189 190 192 193 199 203 205 205 201 195 194 178 159 185 182 189 196 201
327 324 321 321 318 322 320 315 314 317 325 322 326 327 281 225 230 212 196 168 166 165 167 171 172 179 182 182 186 190 192 192 192 188 194 185 181 183 187 186 184 187 184 185 190 191 191 191 193 196 200 203 203 199 196 190 191 162 172 191 191 197 202
326 323 320 315 313 318 323 318 320 328 332 331 331 334 335 275 211 166 154 156 160 167 170 175 176 178 183 183 188 191 193 193 193 190 193 188 184 186 186 188 188 189 183 185 192 193 191 189 190 193 196 201 201 199 200 192 196 179 162 165 176 200 203
325 323 321 321 315 320 327 322 324 332 339 338 345 343 348 347 296 161 158 169 173 176 177 180 179 180 184 187 189 193 193 195 189 188 193 189 189 188 189 192 191 188 184 187 190 191 191 189 191 192 192 197 196 199 200 207 200 199 169 175 173 182 180
322 319 321 322 313 336 337 327 322 335 350 346 349 357 353 359 5 334 200 177 189 188 192 191 182 181 185 188 192 196 194 191 185 185 190 180 186 182 179 199 191 185 187 192 193 196 192 192 192 189 193 191 192 193 203 205 208 209 182 176 181 176 176
324 324 326 317 315 338 337 337 331 345 359 352 351 355 358 6 7 7 356 330 279 230 208 193 184 184 188 191 196 196 192 191 186 185 189 184 176 111 100 57 57 33 190 173 61 53 55 188 190 191 191 200 195 195 197 201 206 196 171 162 176 183 185
324 327 330 324 331 345 345 341 341 345 0 1 359 0 10 12 8 1 359 353 350 337 267 198 191 189 192 195 199 196 191 189 185 184 185 177 144 144 123 114 52 50 48 56 75 80 78 77 91 120 193 196 159 72 27 172 141 146 153 165 173 181 184
323 331 334 328 335 345 343 343 347 347 1 357 353 357 356 4 5 1 351 348 351 352 325 249 209 190 195 200 198 194 191 191 186 183 184 167 146 147 149 136 131 81 44 46 57 60 63 64 60 69 85 108 132 133 72 30 167 152 156 170 176 182 187